カタログに戻る

DELTA 1 DEB

運用中PO
NORAD 12291·DEBRIS·🇺🇸 United States

打ち上げ Mar 5, 1978 から Vandenberg Space Force Base

Loading…

次のパス (今後24時間)

TLE

最新Source: Space-Track

元期: Sep 14, 2026, 02:21 UTC

1 12291U 78026EK  26257.09844515  .00001397  00000-0  49458-3 0  9999
2 12291  99.2759 101.6089 0041325 156.5227 320.7126 14.35861682346442

AllMySatでDELTA 1 DEBをリアルタイム追跡

Download on the App Store